Preview of NWS' New Version of Forecast
This preview is not operational and should not be used for support decisions.

Regional Weather Roundup (RWR)

Issued by Jackson, KY (JKL)

                            
000
ASUS43 KJKL 200710
RWRJKL

EAST KENTUCKY HOURLY WEATHER ROUNDUP
NATIONAL WEATHER SERVICE JACKSON KY
300 AM EDT MON MAY 20 2019

NOTE: "FAIR" INDICATES FEW OR NO CLOUDS BELOW 12,000 FEET WITH
NO SIGNIFICANT WEATHER AND/OR OBSTRUCTIONS TO VISIBILITY.

* THESE REPORTS ARE NOT UNDER NWS QUALITY CONTROL AND MAY NOT
  REPORT WEATHER SUCH AS PRECIPITATION AND FOG.

KYZ079-080-083-085-087-088-110-112-115-119-120-200800
...EASTERN KENTUCKY...
  
CITY           SKY/WX    TMP DP  RH WIND       PRES   REMARKS
JACKSON        MOCLDY    70  59  68 MISG      29.96S                  
LONDON         CLOUDY    69  62  78 SW3       29.97S                  
SOMERSET*        N/A     64  61  88 CALM      29.97S                  
MONTICELLO*      N/A     68  62  81 W15         N/A                   
WILLIAMSBURG*    N/A     72  57  60 SW3       29.97S                  
MIDDLESBORO*   CLOUDY    71  60  69 W3        29.99R                  
HARLAN APT*    CLOUDY    71  54  54 NW3       29.99F                  
PIKE CO APT*   CLOUDY    74  54  50 SW5       29.96S                  
BIG SANDY APT* CLOUDY    74  57  56 SW5       29.95S                  
MOREHEAD APT*  CLOUDY    70  61  73 NW12      29.95R                  
ASHLAND*         N/A     64  63  96 W3        29.90S                  
$$

KYZ035-036-041-042-044-050-067-078-099-200800
...CENTRAL KENTUCKY...
  
CITY           SKY/WX    TMP DP  RH WIND       PRES   REMARKS
MT STERLING*   MOCLDY    68  61  77 NW7G16    29.96R                  
FLEMING/MASON* RAIN      61  61  99 W6        29.96R                  
DANVILLE*      MOCLDY    66  63  88 SW8       29.95S                  
LEXINGTON      LGT RAIN  63  58  83 W7        29.96R                  
FRANKFORT      LGT RAIN  62  60  93 SW7       29.93S                  
LOUISVILLE       N/A     65  62  90 S5        29.92S                  
LEBANON*       PTSUNNY   64  61  88 NW10G21   29.97R                  
GLASGOW*       MOCLDY    68  64  89 W3        29.96R                  
BOWLING GREEN  CLOUDY    71  66  84 W5        29.95R                  
$$

KYZ091>093-OHZ055-061-077-WVZ005-015-034-035-042-200800
...SOUTHERN OHIO/WEST VIRGINIA...
  
CITY           SKY/WX    TMP DP  RH WIND       PRES   REMARKS
COVINGTON      MOCLDY    62  60  93 SW7       29.89S                  
COLUMBUS       MOCLDY    62  60  93 S7        29.86R                  
DAYTON           N/A     62  59  90 SW9       29.88R                  
WILMINGTON     MOCLDY    62  62 100 SW8       29.88S                  
HUNTINGTON       N/A     69  60  73 SW5       29.90S                  
CHARLESTON     MOCLDY    73  58  59 S6        29.91F                  
PINEVILLE*     CLOUDY    64  63  97 MISG      30.04S FOG              
BECKLEY        CLOUDY    66  59  78 SW5       30.02F                  
BLUEFIELD      CLOUDY    66  56  70 SW7       30.05F                  
LOGAN CO APT*  CLOUDY    73  55  53 S8G15     29.95F                  
$$

VAZ002-007-008-TNZ017-027-036-066-071-200800
...SOUTHWEST VIRGINIA/EAST TENNESSEE...
  
CITY           SKY/WX    TMP DP  RH WIND       PRES   REMARKS
WISE*          CLOUDY    68  57  68 SW6       30.05S                  
JONESVILLE*    CLOUDY    66  64  94 CALM      30.01S                  
ABINGDON*      CLOUDY    64  64 100 CALM      30.03F                  
BRISTOL        CLOUDY    66  64  93 CALM      30.01S                  
MORRISTOWN*    CLOUDY    72  61  68 SW5       29.99R                  
SEVIERVILLE*   CLOUDY    66  63  88 CALM      29.98S                  
KNOXVILLE      CLOUDY    72  61  68 SW7       29.98R                  
LAFOLLETTE*    CLOUDY    70  59  68 N3        30.01S                  
OAK RIDGE      CLOUDY    74  60  61 CALM      29.99S                  
CROSSVILLE       N/A     64  56  75 SW5       30.03R                  
NASHVILLE        N/A     70  65  84 SW7       29.96S                  
$$

...KEY TO REMARKS...
VSB - VISIBILITY IN MILES
WCI - WIND CHILL INDEX
HX  - HEAT INDEX

$$